Snowfall_Accumulation
2.0 4.7 6.0 3.1 3.3 3.0 3.4 3.8 3.0 1.7 0.6 1.8 2.0 1.2 0.6 0.2 0.1 0.2 0.1 0.1 0.1 0.1 0.1 0.0 0.0 0.0 0.0 0.0 0.0 0.0 0.0 0.0 0.0 0.0 0.0 0.0 0.0 0.0 0.0 0.0 0.1 0.0 0.1 0.0
4.5 5.2 1.9 0.8 1.5 2.8 3.8 5.3 4.1 2.4 1.1 2.1 2.1 1.2 0.6 0.3 0.3 0.3 0.3 0.3 0.3 0.2 0.0 0.0 0.0 0.0 0.0 0.0 0.0 0.0 0.0 0.0 0.0 0.0 0.0 0.0 0.0 0.0 0.0 0.0 0.0 0.2 0.1 0.0
4.8 2.4 1.0 1.5 2.8 4.7 4.6 4.4 3.8 3.6 2.4 2.0 3.3 2.3 1.0 0.5 0.3 0.2 0.1 0.2 0.3 0.4 0.5 0.1 0.0 0.0 0.4 0.0 0.0 0.0 0.0 0.0 0.0 0.0 0.0 0.0 0.0 0.0 0.0 0.0 0.0 0.1 0.2 0.1
3.1 0.8 1.2 2.5 3.1 4.5 5.3 1.9 2.7 3.6 6.0 6.3 4.8 7.2 1.5 0.9 0.7 0.5 0.3 0.2 0.2 0.3 0.4 0.2 0.1 0.1 0.1 0.7 0.1 0.3 0.0 0.0 0.0 0.0 0.0 0.0 0.0 0.0 0.0 0.0 0.0 0.1 0.1 0.1
4.4 1.5 1.9 3.1 2.2 2.7 3.5 1.7 2.4 3.8 7.1 9.0 4.9 7.7 2.5 1.2 1.4 1.2 0.6 0.4 0.3 0.3 0.3 0.3 0.2 0.3 0.1 0.7 0.6 0.4 0.1 0.0 0.0 0.0 0.0 0.0 0.0 0.0 0.0 0.0 0.0 0.1 0.1 0.1
2.7 0.9 1.6 2.0 0.8 1.5 2.2 2.6 3.2 4.8 9.5 17.5 5.6 6.2 4.0 2.6 2.8 2.1 1.1 0.8 0.8 0.6 0.4 0.4 0.2 0.1 0.1 0.0 0.1 0.1 0.1 0.1 0.0 0.0 0.0 0.0 0.1 0.0 0.0 0.0 0.0 0.0 0.1 0.1
5.3 3.3 2.0 1.2 3.2 2.6 5.0 11.6 22.0 23.8 24.3 14.0 2.3 4.4 4.5 2.8 2.6 2.8 2.9 2.3 1.6 1.1 0.6 0.5 0.5 0.4 0.2 0.1 0.2 0.2 0.2 0.1 0.1 0.1 0.2 0.0 0.3 0.3 0.0 0.0 0.0 0.1 0.2 0.2
8.2 6.9 3.5 2.3 3.8 4.9 5.2 9.6 17.5 16.5 11.0 5.0 2.9 4.5 4.0 3.1 2.6 2.4 2.5 2.3 1.5 0.9 0.6 0.6 0.6 0.6 0.2 0.3 0.2 0.2 0.2 0.2 0.1 0.1 0.2 0.2 0.0 0.3 0.0 0.0 0.1 0.1 0.2 0.1
9.8 6.3 2.3 1.5 1.7 3.6 6.8 7.9 6.5 11.5 8.8 5.8 4.7 4.1 3.0 2.0 1.7 1.9 2.3 2.0 2.0 1.2 0.9 0.6 0.9 0.8 0.8 0.5 0.4 0.5 0.3 0.3 0.2 0.1 0.1 0.2 0.2 0.2 0.4 0.1 0.1 0.1 0.1 0.1
10.9 8.8 3.5 1.8 2.2 2.8 4.2 6.0 8.4 15.5 14.3 8.6 5.2 3.8 4.7 3.3 2.6 2.2 2.4 2.9 2.5 2.0 1.2 1.0 0.9 1.0 0.7 0.7 0.7 0.4 0.4 0.4 0.3 0.2 0.1 0.1 0.2 0.3 0.3 0.2 0.2 0.2 0.2 0.2
9.0 11.3 7.3 5.3 7.4 7.8 6.6 8.5 10.5 12.4 10.5 9.5 7.2 5.8 5.6 4.6 4.0 3.6 3.1 3.0 3.0 2.9 2.7 1.9 1.2 1.0 1.0 0.7 0.5 0.7 0.6 0.3 0.4 0.3 0.3 0.2 0.3 0.2 0.3 0.5 0.4 0.4 0.4 0.6
8.7 11.8 10.0 6.4 4.3 4.2 6.5 8.2 9.9 14.0 10.7 6.6 7.0 6.4 4.3 3.5 3.7 3.6 3.4 3.1 2.9 3.2 3.4 2.9 2.1 1.7 1.0 1.3 1.2 1.0 1.0 0.9 0.7 0.4 0.7 0.6 0.4 0.6 0.7 0.7 0.6 0.6 0.6 0.8
13.3 16.0 14.2 8.5 7.2 5.5 8.3 7.2 7.9 9.4 9.6 7.6 6.9 5.3 3.3 2.7 2.8 2.9 3.1 3.1 3.1 3.0 3.3 2.9 2.3 1.9 1.3 1.7 1.5 1.4 1.4 1.1 0.9 0.5 0.5 0.8 0.9 1.0 1.0 0.8 0.7 0.7 0.7 0.8
13.4 16.3 12.6 11.5 10.1 9.4 9.1 7.3 6.7 10.1 12.5 7.6 4.8 3.9 3.4 3.2 3.1 3.0 3.0 3.1 3.2 2.9 2.9 3.0 3.1 2.6 1.6 1.5 1.5 1.4 1.7 1.5 1.1 1.2 1.4 1.2 1.3 1.6 1.3 0.8 0.9 0.8 1.3 2.4
11.3 13.4 6.6 4.1 3.7 5.0 5.7 5.4 5.8 7.8 7.6 7.0 4.5 3.8 4.1 4.2 4.1 3.9 3.7 3.4 3.0 3.1 2.9 2.9 3.5 3.6 2.7 2.2 1.4 1.5 1.7 1.4 1.3 1.2 1.7 1.9 2.1 1.6 1.1 0.9 0.9 1.1 1.9 3.1
10.1 11.3 6.0 3.7 2.5 3.5 4.3 3.6 4.1 4.7 5.0 4.8 3.8 4.2 3.5 3.6 3.3 3.5 3.4 3.5 3.5 3.5 3.4 3.0 2.9 3.3 3.2 3.3 2.5 1.7 1.8 1.4 1.5 1.4 1.6 2.0 2.1 1.7 1.3 0.7 0.9 1.2 1.5 2.4
9.9 10.7 9.7 5.6 2.6 4.8 7.1 4.9 4.8 4.9 4.9 5.1 5.2 4.9 3.7 3.6 3.6 4.1 4.0 4.2 4.4 4.4 4.3 3.6 3.4 4.0 4.0 3.5 2.9 2.6 2.1 2.0 1.6 1.2 1.3 2.0 2.1 1.7 1.3 1.2 0.9 1.1 1.4 1.5
9.0 10.6 13.3 8.9 6.5 10.7 7.0 4.0 4.3 4.9 5.4 5.4 5.3 4.6 4.2 4.3 4.2 4.0 3.6 4.7 5.1 4.9 4.5 4.0 4.0 4.2 4.1 3.3 3.4 2.9 2.6 2.2 2.5 1.7 1.8 1.8 2.1 2.5 1.9 1.7 1.4 1.1 1.1 1.6
5.1 10.2 15.8 13.0 9.5 6.3 4.1 3.0 4.5 5.6 6.0 5.3 4.6 3.7 3.5 3.5 3.2 3.4 3.1 3.6 4.7 4.8 4.5 4.1 4.2 4.5 3.6 3.6 3.1 3.2 3.0 2.8 2.8 3.2 2.3 2.5 2.5 2.5 2.2 2.1 1.7 1.4 1.5 1.8
5.8 10.2 17.0 15.2 11.5 6.9 4.6 2.4 2.8 4.7 6.7 4.2 3.8 3.7 3.6 3.6 4.7 4.5 3.4 2.9 3.4 3.7 3.5 3.5 3.4 3.1 3.3 3.3 2.9 3.2 3.8 3.7 3.9 3.7 3.6 3.1 2.9 3.0 3.1 2.4 1.8 1.6 1.5 1.5
10.4 15.4 17.4 12.8 10.4 4.8 3.0 1.9 2.1 6.2 7.6 3.7 3.4 3.7 3.9 5.0 5.9 4.9 3.6 3.4 3.3 3.5 3.2 2.7 2.4 2.6 3.2 3.0 3.2 3.7 3.8 4.2 4.5 4.2 3.2 3.5 3.1 3.4 3.0 2.4 2.1 1.6 1.5 1.0
7.5 10.6 11.1 10.4 11.6 6.1 2.6 2.7 5.6 6.7 3.4 2.8 2.8 3.0 3.3 3.6 3.4 3.2 3.4 3.6 3.8 3.9 3.4 2.7 2.5 2.7 2.7 2.9 3.3 3.6 3.9 3.9 3.8 3.8 3.5 3.5 3.0 2.8 2.5 2.4 2.4 2.0 2.1 1.8
6.2 8.4 8.8 8.3 6.9 4.5 3.5 4.3 4.5 3.8 3.3 2.5 2.6 2.5 2.9 3.2 3.3 3.5 3.7 3.6 4.0 3.9 3.6 3.1 2.6 2.7 2.4 3.0 3.3 3.9 3.7 3.4 3.6 3.9 3.4 3.3 2.8 2.7 2.8 3.1 2.9 2.5 2.6 2.6
4.4 4.5 6.2 5.7 4.3 3.4 3.2 2.9 2.6 2.4 2.8 2.5 2.6 2.9 3.1 3.4 3.5 3.8 3.8 3.9 4.3 4.3 3.5 3.6 3.0 3.0 3.0 3.1 3.4 3.8 3.9 3.5 3.6 3.7 3.4 3.1 3.2 3.0 2.9 3.1 3.3 3.6 3.7 4.4
3.7 3.9 4.8 4.6 3.3 2.6 2.0 2.2 2.3 2.1 2.0 2.0 2.1 2.5 3.1 3.3 3.5 3.8 4.0 4.2 4.0 4.1 4.1 3.8 3.6 3.4 3.2 3.2 3.5 3.3 3.3 3.1 3.4 3.2 3.3 3.1 3.1 3.6 3.7 4.0 4.0 4.4 4.5 5.3
2.8 3.7 4.7 4.2 3.0 3.6 2.8 2.2 2.2 2.3 2.2 2.3 2.4 2.5 2.6 3.0 3.5 3.7 4.0 4.0 4.0 4.1 4.1 3.9 3.5 3.3 3.5 3.5 3.6 3.2 2.9 3.1 3.6 3.7 3.1 3.0 3.2 3.4 3.4 3.7 4.2 3.2 3.9 4.1